Le nostre stazioni meteo in Italia

Pubblicità
Il mio iltempo24.it
Venezia Lido, Italia (16101): Temperatura & dewpoint: 19.03.2019 20:00:00 - 25.03.2019 20:00:00 (CET)Venezia Lido, Italia (16101): velocità del vento: 19.03.2019 20:00:00 - 25.03.2019 20:00:00 (CET)Venezia Lido, Italia (16101): direzione del vento: 19.03.2019 20:00:00 - 25.03.2019 20:00:00 (CET)Venezia Lido, Italia (16101): reduced air pressure: 19.03.2019 20:00:00 - 25.03.2019 20:00:00 (CET)
Data & Tempo tt [°C] td [°C] ff [km/h] ff [kn] dd ppp [hPa]
25.03.2019 20:00:00 - - - - - -
25.03.2019 19:00:00 9,4 8,0 8 4 SSE 1006,7
25.03.2019 18:00:00 8,4 6,8 9 5 SE 1007,0
25.03.2019 17:00:00 11,5 9,9 5 3 E 1006,9
25.03.2019 16:00:00 9,7 8,3 4 2 SSE 1007,7
25.03.2019 15:00:00 9,5 8,1 5 3 S 1008,6
25.03.2019 14:00:00 9,1 7,7 8 4 S 1009,7
25.03.2019 13:00:00 9,7 8,3 9 5 SSE 1010,9
25.03.2019 12:00:00 10,4 8,8 13 7 SSE 1011,8
25.03.2019 11:00:00 12,6 10,3 13 7 SE 1012,6
25.03.2019 10:00:00 12,2 9,7 11 6 E 1013,1
25.03.2019 09:00:00 9,6 8,0 13 7 ENE 1013,4
25.03.2019 08:00:00 7,4 6,0 9 5 ENE 1013,4
25.03.2019 07:00:00 6,1 4,7 5 3 E 1013,7
25.03.2019 06:00:00 6,0 4,5 9 5 NE 1014,1
25.03.2019 05:00:00 8,9 7,5 5 3 SSE 1013,7
25.03.2019 04:00:00 8,7 7,3 8 4 SE 1014,4
25.03.2019 03:00:00 6,9 5,5 8 4 ESE 1015,1
25.03.2019 02:00:00 6,5 5,0 8 4 E 1015,6
25.03.2019 01:00:00 8,2 6,6 8 4 E 1016,1
25.03.2019 00:00:00 9,1 5,8 5 3 ENE 1016,6
24.03.2019 23:00:00 10,6 7,4 13 7 SO 1016,8
24.03.2019 22:00:00 10,9 7,7 11 6 SO 1017,2
24.03.2019 21:00:00 11,1 8,8 11 6 SSO 1017,4
24.03.2019 20:00:00 10,7 9,1 11 6 S 1017,4
24.03.2019 19:00:00 11,7 7,0 11 6 SSO 1017,2
24.03.2019 18:00:00 13,5 7,2 9 5 SSO 1017,2
24.03.2019 17:00:00 14,8 7,3 13 7 SSO 1017,7
24.03.2019 16:00:00 15,9 6,3 13 7 SSO 1018,1
24.03.2019 15:00:00 17,2 4,1 11 6 SSO 1019,0
24.03.2019 14:00:00 17,9 1,3 13 7 SSO 1019,8
24.03.2019 13:00:00 19,0 2,7 11 6 SSO 1021,0
24.03.2019 12:00:00 18,8 2,1 8 4 O 1021,5
24.03.2019 11:00:00 18,4 4,8 4 2 NO 1022,0
24.03.2019 10:00:00 16,2 6,3 4 2 ENE 1022,4
24.03.2019 09:00:00 12,8 7,2 4 2 ENE 1022,8
24.03.2019 08:00:00 9,7 5,4 5 3 N 1022,8
24.03.2019 07:00:00 7,7 5,3 5 3 NNE 1022,9
24.03.2019 06:00:00 6,7 5,2 8 4 NNE 1022,7
24.03.2019 05:00:00 5,9 4,4 5 3 NNE 1022,8
24.03.2019 04:00:00 5,6 3,1 4 2 NNE 1023,1
24.03.2019 03:00:00 7,7 5,3 5 3 NNE 1023,1
24.03.2019 02:00:00 5,8 3,1 2 1 ONO 1023,6
24.03.2019 01:00:00 6,6 3,9 4 2 O 1023,7
24.03.2019 00:00:00 7,0 3,0 0 0 N 1023,9
23.03.2019 23:00:00 9,5 4,6 2 1 ONO 1024,0
23.03.2019 22:00:00 11,7 6,6 5 3 ONO 1023,9
23.03.2019 21:00:00 8,4 3,6 4 2 O 1024,0
23.03.2019 20:00:00 9,8 3,9 4 2 O 1023,6
23.03.2019 19:00:00 12,7 4,3 5 3 O 1023,0
23.03.2019 18:00:00 15,6 3,9 5 3 O 1023,0
23.03.2019 17:00:00 16,5 -0,8 9 5 SO 1023,2
23.03.2019 16:00:00 17,5 1,4 8 4 SSO 1023,6
23.03.2019 15:00:00 16,0 1,6 11 6 SSO 1024,0
23.03.2019 14:00:00 18,5 0,0 8 4 SSE 1024,6
23.03.2019 13:00:00 17,9 0,9 8 4 SSE 1025,1
23.03.2019 12:00:00 18,2 0,7 13 7 E 1025,5
23.03.2019 11:00:00 16,6 1,0 8 4 NE 1025,9
23.03.2019 10:00:00 14,9 2,0 9 5 ENE 1026,0
23.03.2019 09:00:00 12,3 3,2 8 4 NE 1026,0
23.03.2019 08:00:00 9,0 1,8 9 5 NE 1026,0
23.03.2019 07:00:00 7,3 0,9 9 5 NNE 1025,8
23.03.2019 06:00:00 6,9 0,9 9 5 NNE 1025,4
23.03.2019 05:00:00 6,5 1,2 5 3 NNE 1025,6
23.03.2019 04:00:00 6,3 1,4 8 4 NNE 1025,8
23.03.2019 03:00:00 6,7 0,9 5 3 NE 1025,9
23.03.2019 02:00:00 7,3 1,3 8 4 N 1026,4
23.03.2019 01:00:00 6,5 0,5 5 3 N 1026,8
23.03.2019 00:00:00 7,6 0,2 5 3 N 1027,1
22.03.2019 23:00:00 6,9 1,5 2 1 N 1027,1
22.03.2019 22:00:00 7,2 1,2 2 1 N 1027,3
22.03.2019 21:00:00 7,2 0,8 2 1 ONO 1027,4
22.03.2019 20:00:00 10,8 4,4 8 4 ONO 1027,5
22.03.2019 19:00:00 10,7 -2,1 4 2 O 1027,3
22.03.2019 18:00:00 13,2 -0,6 5 3 O 1027,3
22.03.2019 17:00:00 15,2 1,2 4 2 OSO 1027,4
22.03.2019 16:00:00 14,8 -1,9 8 4 SSO 1027,9
22.03.2019 15:00:00 15,1 -2,9 8 4 SSO 1028,6
22.03.2019 14:00:00 15,0 -3,5 8 4 S 1029,3
22.03.2019 13:00:00 15,0 -4,0 8 4 SSE 1030,1
22.03.2019 12:00:00 14,8 -3,2 9 5 ENE 1030,6
22.03.2019 11:00:00 13,1 -1,8 11 6 E 1031,0
22.03.2019 10:00:00 10,8 2,3 8 4 NE 1031,2
22.03.2019 09:00:00 6,9 1,1 9 5 NNE 1031,3
22.03.2019 08:00:00 5,9 0,4 5 3 NE 1031,1
22.03.2019 07:00:00 3,4 -0,7 5 3 NE 1030,6
22.03.2019 06:00:00 3,3 -0,6 5 3 NE 1030,4
22.03.2019 05:00:00 3,8 -0,7 5 3 NE 1030,3
22.03.2019 04:00:00 4,6 0,1 8 4 NE 1030,4
22.03.2019 03:00:00 5,6 0,9 8 4 NE 1030,6
22.03.2019 02:00:00 5,5 1,2 8 4 NNE 1031,0
22.03.2019 01:00:00 5,6 1,8 4 2 NE 1031,4
22.03.2019 00:00:00 4,0 -0,3 4 2 N 1031,4
21.03.2019 23:00:00 5,1 1,2 4 2 NNE 1031,5
21.03.2019 22:00:00 5,8 1,7 5 3 NE 1031,5
21.03.2019 21:00:00 6,2 -0,4 4 2 N 1031,1
21.03.2019 20:00:00 6,3 -0,8 0 0 N 1030,9
21.03.2019 19:00:00 7,7 -2,7 4 2 ONO 1030,3
21.03.2019 18:00:00 11,3 -4,5 4 2 OSO 1030,1
21.03.2019 17:00:00 12,5 -3,5 5 3 SSE 1030,1
21.03.2019 16:00:00 12,6 -0,8 8 4 SE 1030,6
21.03.2019 15:00:00 12,0 0,3 13 7 SE 1031,2
21.03.2019 14:00:00 11,9 -0,1 18 10 SE 1031,7
21.03.2019 13:00:00 11,3 0,6 18 10 ESE 1032,5
21.03.2019 12:00:00 11,3 -1,3 22 12 ESE 1033,1
21.03.2019 11:00:00 10,7 -2,5 26 14 E 1033,4
21.03.2019 10:00:00 9,0 -3,4 26 14 E 1033,4
21.03.2019 09:00:00 6,5 -2,0 15 8 ENE 1033,6
21.03.2019 08:00:00 4,8 -2,2 13 7 ENE 1033,2
21.03.2019 07:00:00 2,2 -2,8 8 4 NE 1033,0
21.03.2019 06:00:00 2,4 -3,0 9 5 NE 1032,6
21.03.2019 05:00:00 3,2 -3,5 11 6 ENE 1032,2
21.03.2019 04:00:00 3,0 -3,7 11 6 ENE 1032,2
21.03.2019 03:00:00 4,0 -2,7 11 6 ENE 1032,3
21.03.2019 02:00:00 4,3 -3,3 13 7 ENE 1032,7
21.03.2019 01:00:00 5,6 -2,6 21 11 ENE 1032,8
21.03.2019 00:00:00 6,5 -2,2 24 13 E 1032,4
20.03.2019 23:00:00 6,3 -0,8 15 8 ENE 1032,3
20.03.2019 22:00:00 7,2 -0,4 15 8 ENE 1032,1
20.03.2019 21:00:00 6,8 -0,1 21 11 E 1031,5
20.03.2019 20:00:00 7,0 -0,3 18 10 E 1031,2
20.03.2019 19:00:00 7,3 -0,5 21 11 E 1030,8
20.03.2019 18:00:00 8,6 0,0 21 11 ESE 1030,3
20.03.2019 17:00:00 9,7 -1,2 22 12 ESE 1030,0
20.03.2019 16:00:00 10,0 -1,8 22 12 ESE 1030,1
20.03.2019 15:00:00 10,0 -2,1 24 13 ESE 1030,2
20.03.2019 14:00:00 10,0 -2,4 24 13 ESE 1030,6
20.03.2019 13:00:00 10,1 -3,0 24 13 ESE 1031,2
20.03.2019 12:00:00 9,5 -1,4 28 15 ESE 1031,7
20.03.2019 11:00:00 9,2 -2,2 31 17 ESE 1031,8
20.03.2019 10:00:00 8,5 -2,0 34 18 ESE 1031,6
20.03.2019 09:00:00 7,2 1,0 16 9 E 1031,3
20.03.2019 08:00:00 5,1 0,2 16 9 E 1030,8
20.03.2019 07:00:00 3,6 -0,8 21 11 E 1030,1
20.03.2019 06:00:00 2,9 -0,3 13 7 ENE 1029,4
20.03.2019 05:00:00 3,1 0,1 11 6 ENE 1029,0
20.03.2019 04:00:00 3,5 0,2 11 6 ENE 1028,7
20.03.2019 03:00:00 4,3 0,4 11 6 ENE 1028,6
20.03.2019 02:00:00 4,9 1,2 13 7 ENE 1028,5
20.03.2019 01:00:00 5,1 1,2 9 5 ENE 1028,2
20.03.2019 00:00:00 4,9 1,0 11 6 ENE 1027,8
19.03.2019 23:00:00 5,2 0,7 8 4 NE 1027,5
19.03.2019 22:00:00 5,5 0,6 8 4 NE 1027,0
19.03.2019 21:00:00 6,3 0,1 13 7 E 1026,3
19.03.2019 20:00:00 6,8 -0,7 22 12 E 1025,7

tt = Temperatura
td = dewpoint
ff = velocità del vento
dd = direzione del vento
ppp = reduced air pressure

Stazioni seguenti

WeatherPro
AMSI
MeteoEarth